| time (UTC) | temp F | wind direction | speed MPH | gust MPH | rain 1hr in | rain 24hr in | rain mn in | humidity % | barometer mb |
| 20260506084534 | 60 | 105 | 0.0 | 4.0 | 0.00 | 0.00 | 0.00 | 81 | 1013.9 |
| 20260506084026 | 60 | 117 | 0.0 | 4.0 | 0.00 | 0.00 | 0.00 | 80 | 1013.9 |
| 20260506083525 | 60 | 115 | 0.0 | 3.0 | 0.00 | 0.00 | 0.00 | 81 | 1013.7 |
| 20260506083024 | 60 | 152 | 1.0 | 4.0 | 0.00 | 0.00 | 0.00 | 80 | 1013.7 |
| 20260506082524 | 60 | 89 | 0.0 | 4.0 | 0.00 | 0.00 | 0.00 | 80 | 1013.7 |
| 20260506082024 | 60 | 106 | 1.0 | 3.0 | 0.00 | 0.00 | 0.00 | 79 | 1013.8 |
| 20260506081523 | 60 | 257 | 0.0 | 4.0 | 0.00 | 0.00 | 0.00 | 79 | 1013.9 |
| 20260506081023 | 60 | 130 | 0.0 | 4.0 | 0.00 | 0.00 | 0.00 | 78 | 1013.9 |
| 20260506080522 | 61 | 98 | 0.0 | 3.0 | 0.00 | 0.00 | 0.00 | 78 | 1014.0 |
| 20260506073521 | 61 | 91 | 0.0 | 7.0 | 0.00 | 0.00 | 0.00 | 75 | 1014.0 |
| 20260506073021 | 62 | 115 | 1.0 | 7.0 | 0.00 | 0.00 | 0.00 | 75 | 1014.0 |
| 20260506072522 | 62 | 183 | 0.0 | 8.0 | 0.00 | 0.00 | 0.00 | 74 | 1013.9 |
| 20260506072020 | 62 | 128 | 2.0 | 8.0 | 0.00 | 0.00 | 0.00 | 74 | 1013.9 |
| 20260506071520 | 62 | 51 | 0.0 | 4.0 | 0.00 | 0.00 | 0.00 | 73 | 1014.0 |
| 20260506071019 | 62 | 148 | 0.0 | 4.0 | 0.00 | 0.00 | 0.00 | 73 | 1013.9 |
| 20260506070519 | 62 | 209 | 0.0 | 4.0 | 0.00 | 0.00 | 0.00 | 73 | 1014.2 |
| 20260506062018 | 63 | 210 | 0.0 | 9.0 | 0.00 | 0.00 | 0.00 | 69 | 1014.0 |
| 20260506061524 | 63 | 144 | 2.0 | 9.0 | 0.00 | 0.00 | 0.00 | 69 | 1013.9 |
| 20260506061018 | 63 | 127 | 2.0 | 7.0 | 0.00 | 0.00 | 0.00 | 67 | 1014.3 |
| 20260506060516 | 63 | 135 | 1.0 | 4.0 | 0.00 | 0.00 | 0.00 | 66 | 1014.2 |
| 20260506051010 | 58 | 259 | 0.0 | 0.0 | 0.00 | 0.00 | 0.00 | 73 | 1014.7 |
| 20260506050510 | 58 | 259 | 0.0 | 0.0 | 0.00 | 0.00 | 0.00 | 74 | 1014.4 |
| 20260506045006 | 59 | 259 | 0.0 | 1.0 | 0.00 | 0.00 | 0.00 | 70 | 1014.4 |
| 20260506044510 | 59 | 259 | 0.0 | 0.0 | 0.00 | 0.00 | 0.00 | 72 | 1014.4 |
| 20260506044005 | 60 | 259 | 0.0 | 0.0 | 0.00 | 0.00 | 0.00 | 69 | 1014.4 |
| 20260506043505 | 60 | 242 | 0.0 | 0.0 | 0.00 | 0.00 | 0.00 | 71 | 1014.4 |
| 20260506043003 | 60 | 242 | 0.0 | 0.0 | 0.00 | 0.00 | 0.00 | 70 | 1014.4 |
| 20260506042503 | 60 | 242 | 0.0 | 0.0 | 0.00 | 0.00 | 0.00 | 67 | 1014.3 |
| 20260506042003 | 60 | 242 | 0.0 | 0.0 | 0.00 | 0.00 | 0.00 | 67 | 1014.5 |
| 20260506041502 | 60 | 242 | 0.0 | 0.0 | 0.00 | 0.00 | 0.00 | 68 | 1014.5 |
| 20260506041003 | 60 | 242 | 0.0 | 0.0 | 0.00 | 0.00 | 0.00 | 67 | 1014.6 |
| 20260506040559 | 60 | 242 | 0.0 | 0.0 | 0.00 | 0.00 | 0.00 | 69 | 1014.6 |
| 20260506040059 | 61 | 242 | 0.0 | 3.0 | 0.00 | 0.00 | 0.00 | 68 | 1014.7 |
| 20260506035558 | 62 | 242 | 0.0 | 3.0 | 0.00 | 0.00 | 0.00 | 66 | 1014.5 |
| 20260506035058 | 62 | 202 | 0.0 | 3.0 | 0.00 | 0.00 | 0.00 | 64 | 1014.5 |
| 20260506034603 | 62 | 217 | 0.0 | 3.0 | 0.00 | 0.00 | 0.00 | 63 | 1014.4 |
| 20260506034059 | 63 | 182 | 0.0 | 2.0 | 0.00 | 0.00 | 0.00 | 61 | 1014.5 |
| 20260506033557 | 62 | 49 | 0.0 | 0.0 | 0.00 | 0.00 | 0.00 | 62 | 1014.5 |
| 20260506033119 | 62 | 49 | 0.0 | 0.0 | 0.00 | 0.00 | 0.00 | 64 | 1014.6 |
| 20260506032558 | 60 | 49 | 0.0 | 0.0 | 0.00 | 0.00 | 0.00 | 67 | 1014.6 |
| 20260506032058 | 60 | 49 | 0.0 | 0.0 | 0.00 | 0.00 | 0.00 | 69 | 1014.6 |
| 20260506031558 | 60 | 49 | 0.0 | 0.0 | 0.00 | 0.00 | 0.00 | 68 | 1014.6 |
| 20260506031058 | 60 | 49 | 0.0 | 0.0 | 0.00 | 0.00 | 0.00 | 68 | 1014.6 |
| 20260506030556 | 60 | 49 | 0.0 | 0.0 | 0.00 | 0.00 | 0.00 | 67 | 1014.5 |
| 20260506025556 | 61 | 49 | 0.0 | 1.0 | 0.00 | 0.00 | 0.00 | 65 | 1014.5 |
| 20260506025100 | 61 | 38 | 0.0 | 0.0 | 0.00 | 0.00 | 0.00 | 65 | 1014.5 |
| 20260506024614 | 61 | 115 | 0.0 | 0.0 | 0.00 | 0.00 | 0.00 | 64 | 1014.5 |
| 20260506024056 | 62 | 123 | 0.0 | 0.0 | 0.00 | 0.00 | 0.00 | 63 | 1014.6 |
| 20260506023556 | 62 | 123 | 0.0 | 2.0 | 0.00 | 0.00 | 0.00 | 63 | 1014.6 |
| 20260506023103 | 63 | 123 | 0.0 | 2.0 | 0.00 | 0.00 | 0.00 | 60 | 1014.6 |
| 20260506022555 | 63 | 232 | 0.0 | 1.0 | 0.00 | 0.00 | 0.00 | 59 | 1014.5 |
| 20260506022056 | 63 | 232 | 0.0 | 1.0 | 0.00 | 0.00 | 0.00 | 59 | 1014.6 |
| 20260506021600 | 63 | 225 | 0.0 | 0.0 | 0.00 | 0.00 | 0.00 | 59 | 1014.6 |
| 20260506021059 | 63 | 225 | 0.0 | 0.0 | 0.00 | 0.00 | 0.00 | 58 | 1014.6 |
| 20260506020554 | 63 | 225 | 0.0 | 0.0 | 0.00 | 0.00 | 0.00 | 59 | 1014.7 |
| 20260506020054 | 63 | 225 | 0.0 | 0.0 | 0.00 | 0.00 | 0.00 | 59 | 1014.7 |
| 20260506015556 | 64 | 225 | 0.0 | 0.0 | 0.00 | 0.00 | 0.00 | 57 | 1014.7 |
| 20260506015054 | 64 | 225 | 0.0 | 0.0 | 0.00 | 0.00 | 0.00 | 56 | 1014.7 |
| 20260506014554 | 65 | 225 | 0.0 | 0.0 | 0.00 | 0.00 | 0.00 | 55 | 1014.7 |
| 20260506014100 | 65 | 225 | 0.0 | 0.0 | 0.00 | 0.00 | 0.00 | 54 | 1014.7 |
| 20260506013554 | 65 | 225 | 0.0 | 0.0 | 0.00 | 0.00 | 0.00 | 54 | 1014.7 |
| 20260506013101 | 65 | 225 | 0.0 | 0.0 | 0.00 | 0.00 | 0.00 | 55 | 1014.6 |
| 20260506012554 | 65 | 225 | 0.0 | 0.0 | 0.00 | 0.00 | 0.00 | 53 | 1014.6 |
| 20260506012057 | 65 | 225 | 0.0 | 0.0 | 0.00 | 0.00 | 0.00 | 53 | 1014.6 |
| 20260506011620 | 66 | 225 | 0.0 | 0.0 | 0.00 | 0.00 | 0.00 | 52 | 1014.6 |
| 20260506011053 | 67 | 225 | 0.0 | 0.0 | 0.00 | 0.00 | 0.00 | 50 | 1014.6 |
| 20260506010553 | 67 | 225 | 0.0 | 0.0 | 0.00 | 0.00 | 0.00 | 50 | 1014.6 |
| 20260506010059 | 67 | 225 | 0.0 | 0.0 | 0.00 | 0.00 | 0.00 | 50 | 1014.5 |
| 20260506005551 | 67 | 225 | 0.0 | 0.0 | 0.00 | 0.00 | 0.00 | 50 | 1014.5 |
| 20260506005054 | 67 | 225 | 0.0 | 0.0 | 0.00 | 0.00 | 0.00 | 49 | 1014.6 |
| 20260506004552 | 67 | 225 | 0.0 | 0.0 | 0.00 | 0.00 | 0.00 | 48 | 1014.5 |
| 20260506004051 | 68 | 225 | 0.0 | 1.0 | 0.00 | 0.00 | 0.00 | 48 | 1014.4 |
| 20260506003551 | 68 | 225 | 0.0 | 1.0 | 0.00 | 0.00 | 0.00 | 48 | 1014.5 |
| 20260506003051 | 68 | 213 | 0.0 | 0.0 | 0.00 | 0.00 | 0.00 | 47 | 1014.5 |
| 20260506002551 | 69 | 213 | 0.0 | 0.0 | 0.00 | 0.00 | 0.00 | 46 | 1014.4 |
| 20260506002050 | 69 | 213 | 0.0 | 1.0 | 0.00 | 0.00 | 0.00 | 46 | 1014.3 |
| 20260506001551 | 70 | 213 | 0.0 | 3.0 | 0.00 | 0.00 | 0.00 | 45 | 1014.4 |
| 20260506001051 | 70 | 257 | 0.0 | 3.0 | 0.00 | 0.00 | 0.00 | 44 | 1014.3 |
| 20260506000549 | 70 | 215 | 0.0 | 2.0 | 0.00 | 0.00 | 0.00 | 45 | 1014.2 |
| 20260506000057 | 71 | 225 | 0.0 | 2.0 | 0.00 | 0.00 | 0.00 | 44 | 1014.2 |
| 20260505235549 | 71 | 211 | 0.0 | 3.0 | 0.00 | 0.00 | 0.00 | 44 | 1014.2 |
| 20260505235049 | 71 | 211 | 0.0 | 3.0 | 0.00 | 0.00 | 0.00 | 43 | 1014.3 |
| 20260505234549 | 71 | 229 | 0.0 | 3.0 | 0.00 | 0.00 | 0.00 | 43 | 1014.2 |
| 20260505234048 | 72 | 205 | 0.0 | 3.0 | 0.00 | 0.00 | 0.00 | 42 | 1014.2 |
| 20260505233549 | 72 | 234 | 0.0 | 3.0 | 0.00 | 0.00 | 0.00 | 42 | 1014.2 |
| 20260505233048 | 72 | 200 | 0.0 | 5.0 | 0.00 | 0.00 | 0.00 | 41 | 1014.1 |
| 20260505232549 | 72 | 206 | 1.0 | 5.0 | 0.00 | 0.00 | 0.00 | 42 | 1014.1 |
| 20260505232048 | 72 | 190 | 0.0 | 4.0 | 0.00 | 0.00 | 0.00 | 41 | 1014.1 |
| 20260505231549 | 73 | 221 | 1.0 | 7.0 | 0.00 | 0.00 | 0.00 | 40 | 1014.1 |
| 20260505231048 | 73 | 235 | 3.0 | 9.0 | 0.00 | 0.00 | 0.00 | 39 | 1014.0 |
| 20260505230548 | 73 | 239 | 2.0 | 9.0 | 0.00 | 0.00 | 0.00 | 40 | 1014.0 |
| 20260505230047 | 73 | 198 | 2.0 | 13.0 | 0.00 | 0.00 | 0.00 | 40 | 1014.0 |
| 20260505225547 | 73 | 214 | 4.0 | 13.0 | 0.00 | 0.00 | 0.00 | 39 | 1014.1 |
| 20260505225047 | 73 | 210 | 1.0 | 7.0 | 0.00 | 0.00 | 0.00 | 40 | 1014.1 |
| 20260505224547 | 73 | 217 | 2.0 | 6.0 | 0.00 | 0.00 | 0.00 | 40 | 1014.1 |
| 20260505224046 | 74 | 217 | 2.0 | 7.0 | 0.00 | 0.00 | 0.00 | 40 | 1014.0 |
| 20260505223546 | 74 | 244 | 0.0 | 7.0 | 0.00 | 0.00 | 0.00 | 39 | 1014.0 |
| 20260505223046 | 74 | 165 | 2.0 | 10.0 | 0.00 | 0.00 | 0.00 | 39 | 1014.2 |
| 20260505222546 | 74 | 234 | 3.0 | 10.0 | 0.00 | 0.00 | 0.00 | 38 | 1014.1 |
| 20260505222046 | 74 | 211 | 3.0 | 8.0 | 0.00 | 0.00 | 0.00 | 38 | 1014.1 |
| 20260505221556 | 74 | 213 | 3.0 | 12.0 | 0.00 | 0.00 | 0.00 | 38 | 1014.1 |
| 20260505221047 | 74 | 240 | 3.0 | 12.0 | 0.00 | 0.00 | 0.00 | 38 | 1014.2 |
| 20260505220545 | 74 | 234 | 4.0 | 11.0 | 0.00 | 0.00 | 0.00 | 38 | 1014.1 |
| 20260505220056 | 74 | 240 | 2.0 | 10.0 | 0.00 | 0.00 | 0.00 | 38 | 1014.1 |
| 20260505215545 | 74 | 235 | 2.0 | 10.0 | 0.00 | 0.00 | 0.00 | 38 | 1014.0 |
| 20260505215045 | 75 | 219 | 3.0 | 11.0 | 0.00 | 0.00 | 0.00 | 37 | 1014.0 |
| 20260505214551 | 74 | 206 | 3.0 | 10.0 | 0.00 | 0.00 | 0.00 | 39 | 1014.1 |
| 20260505214044 | 74 | 249 | 2.0 | 10.0 | 0.00 | 0.00 | 0.00 | 39 | 1014.2 |
| 20260505213543 | 75 | 200 | 3.0 | 7.0 | 0.00 | 0.00 | 0.00 | 38 | 1014.2 |
| 20260505213044 | 75 | 297 | 1.0 | 6.0 | 0.00 | 0.00 | 0.00 | 38 | 1014.3 |
| 20260505212543 | 75 | 239 | 2.0 | 9.0 | 0.00 | 0.00 | 0.00 | 39 | 1014.1 |
| 20260505212043 | 76 | 182 | 3.0 | 9.0 | 0.00 | 0.00 | 0.00 | 37 | 1014.3 |
| 20260505211542 | 76 | 233 | 1.0 | 9.0 | 0.00 | 0.00 | 0.00 | 37 | 1014.2 |
| 20260505211041 | 76 | 215 | 3.0 | 9.0 | 0.00 | 0.00 | 0.00 | 38 | 1014.4 |
| 20260505210541 | 76 | 277 | 2.0 | 10.0 | 0.00 | 0.00 | 0.00 | 36 | 1014.6 |
| 20260505210048 | 76 | 253 | 2.0 | 10.0 | 0.00 | 0.00 | 0.00 | 38 | 1014.6 |
| 20260505205541 | 76 | 215 | 4.0 | 10.0 | 0.00 | 0.00 | 0.00 | 37 | 1014.6 |
| 20260505205042 | 76 | 219 | 3.0 | 9.0 | 0.00 | 0.00 | 0.00 | 37 | 1014.5 |
| 20260505204551 | 75 | 161 | 3.0 | 9.0 | 0.00 | 0.00 | 0.00 | 38 | 1014.5 |
| 20260505204041 | 75 | 249 | 2.0 | 7.0 | 0.00 | 0.00 | 0.00 | 38 | 1014.5 |
| 20260505203542 | 75 | 121 | 1.0 | 9.0 | 0.00 | 0.00 | 0.00 | 38 | 1014.5 |
| 20260505203039 | 75 | 210 | 3.0 | 7.0 | 0.00 | 0.00 | 0.00 | 38 | 1014.6 |
| 20260505202539 | 75 | 176 | 2.0 | 10.0 | 0.00 | 0.00 | 0.00 | 36 | 1014.6 |
| 20260505202038 | 75 | 215 | 2.0 | 10.0 | 0.00 | 0.00 | 0.00 | 36 | 1014.8 |
| 20260505201541 | 76 | 229 | 3.0 | 9.0 | 0.00 | 0.00 | 0.00 | 37 | 1014.8 |
| 20260505201038 | 76 | 150 | 3.0 | 10.0 | 0.00 | 0.00 | 0.00 | 37 | 1014.8 |
| 20260505200538 | 76 | 257 | 5.0 | 12.0 | 0.00 | 0.00 | 0.00 | 37 | 1015.0 |
| 20260505200036 | 76 | 222 | 3.0 | 9.0 | 0.00 | 0.00 | 0.00 | 38 | 1015.0 |
| 20260505195536 | 77 | 286 | 3.0 | 10.0 | 0.00 | 0.00 | 0.00 | 37 | 1015.0 |
| 20260505195036 | 76 | 275 | 5.0 | 10.0 | 0.00 | 0.00 | 0.00 | 37 | 1015.1 |
| 20260505194536 | 76 | 225 | 4.0 | 12.0 | 0.00 | 0.00 | 0.00 | 39 | 1015.1 |
| 20260505194036 | 77 | 206 | 4.0 | 12.0 | 0.00 | 0.00 | 0.00 | 39 | 1015.2 |
| 20260505193535 | 77 | 233 | 3.0 | 8.0 | 0.00 | 0.00 | 0.00 | 38 | 1015.2 |
| 20260505193041 | 77 | 221 | 3.0 | 14.0 | 0.00 | 0.00 | 0.00 | 37 | 1015.0 |
| 20260505192534 | 77 | 146 | 4.0 | 14.0 | 0.00 | 0.00 | 0.00 | 36 | 1015.3 |
| 20260505192034 | 78 | 240 | 2.0 | 11.0 | 0.00 | 0.00 | 0.00 | 38 | 1015.2 |
| 20260505191534 | 77 | 223 | 4.0 | 10.0 | 0.00 | 0.00 | 0.00 | 36 | 1015.1 |
| 20260505191037 | 78 | 84 | 2.0 | 12.0 | 0.00 | 0.00 | 0.00 | 37 | 1015.3 |
| 20260505190536 | 77 | 253 | 3.0 | 12.0 | 0.00 | 0.00 | 0.00 | 38 | 1015.5 |
| 20260505190032 | 78 | 248 | 3.0 | 11.0 | 0.00 | 0.00 | 0.00 | 36 | 1015.7 |
| 20260505185531 | 78 | 233 | 4.0 | 10.0 | 0.00 | 0.00 | 0.00 | 38 | 1015.7 |
| 20260505185034 | 78 | 208 | 4.0 | 10.0 | 0.00 | 0.00 | 0.00 | 38 | 1015.8 |
| 20260505184532 | 77 | 198 | 2.0 | 9.0 | 0.00 | 0.00 | 0.00 | 39 | 1015.7 |
| 20260505184032 | 76 | 250 | 3.0 | 10.0 | 0.00 | 0.00 | 0.00 | 37 | 1015.9 |
| 20260505183531 | 77 | 231 | 4.0 | 10.0 | 0.00 | 0.00 | 0.00 | 39 | 1016.0 |
| 20260505183038 | 77 | 197 | 4.0 | 10.0 | 0.00 | 0.00 | 0.00 | 38 | 1016.0 |
| 20260505182529 | 77 | 215 | 3.0 | 10.0 | 0.00 | 0.00 | 0.00 | 38 | 1016.1 |
| 20260505182029 | 76 | 20 | 4.0 | 10.0 | 0.00 | 0.00 | 0.00 | 39 | 1016.2 |
| 20260505181530 | 77 | 165 | 4.0 | 10.0 | 0.00 | 0.00 | 0.00 | 38 | 1016.2 |
| 20260505181029 | 75 | 150 | 4.0 | 10.0 | 0.00 | 0.00 | 0.00 | 39 | 1016.3 |
| 20260505180528 | 75 | 340 | 3.0 | 10.0 | 0.00 | 0.00 | 0.00 | 38 | 1016.3 |
| 20260505180028 | 76 | 259 | 4.0 | 11.0 | 0.00 | 0.00 | 0.00 | 36 | 1016.5 |
| 20260505175528 | 76 | 256 | 3.0 | 11.0 | 0.00 | 0.00 | 0.00 | 37 | 1016.4 |
| 20260505175028 | 76 | 218 | 2.0 | 12.0 | 0.00 | 0.00 | 0.00 | 37 | 1016.4 |
| 20260505174528 | 76 | 206 | 3.0 | 10.0 | 0.00 | 0.00 | 0.00 | 37 | 1016.6 |
| 20260505174027 | 76 | 234 | 3.0 | 10.0 | 0.00 | 0.00 | 0.00 | 39 | 1016.5 |
| 20260505173527 | 76 | 217 | 4.0 | 12.0 | 0.00 | 0.00 | 0.00 | 36 | 1016.5 |
| 20260505173026 | 76 | 232 | 4.0 | 10.0 | 0.00 | 0.00 | 0.00 | 36 | 1016.6 |
| 20260505172525 | 76 | 205 | 3.0 | 6.0 | 0.00 | 0.00 | 0.00 | 40 | 1016.6 |
| 20260505172027 | 75 | 281 | 2.0 | 10.0 | 0.00 | 0.00 | 0.00 | 40 | 1016.6 |
| 20260505171525 | 74 | 226 | 2.0 | 10.0 | 0.00 | 0.00 | 0.00 | 40 | 1016.6 |
| 20260505171025 | 74 | 257 | 2.0 | 13.0 | 0.00 | 0.00 | 0.00 | 40 | 1016.4 |
| 20260505170523 | 75 | 209 | 4.0 | 13.0 | 0.00 | 0.00 | 0.00 | 41 | 1016.6 |
| 20260505170023 | 75 | 217 | 2.0 | 7.0 | 0.00 | 0.00 | 0.00 | 42 | 1016.4 |
| 20260505165523 | 74 | 101 | 2.0 | 7.0 | 0.00 | 0.00 | 0.00 | 41 | 1016.6 |
| 20260505165024 | 75 | 207 | 2.0 | 9.0 | 0.00 | 0.00 | 0.00 | 42 | 1016.6 |
| 20260505164524 | 75 | 256 | 3.0 | 9.0 | 0.00 | 0.00 | 0.00 | 41 | 1016.7 |
| 20260505164023 | 75 | 111 | 3.0 | 8.0 | 0.00 | 0.00 | 0.00 | 39 | 1016.7 |
| 20260505163523 | 74 | 211 | 3.0 | 7.0 | 0.00 | 0.00 | 0.00 | 38 | 1016.8 |
| 20260505163022 | 75 | 120 | 3.0 | 8.0 | 0.00 | 0.00 | 0.00 | 41 | 1016.8 |
| 20260505162522 | 75 | 196 | 2.0 | 8.0 | 0.00 | 0.00 | 0.00 | 38 | 1016.9 |
| 20260505162021 | 75 | 237 | 2.0 | 11.0 | 0.00 | 0.00 | 0.00 | 39 | 1016.8 |
| 20260505161521 | 74 | 283 | 3.0 | 11.0 | 0.00 | 0.00 | 0.00 | 39 | 1017.0 |
| 20260505161020 | 74 | 240 | 2.0 | 9.0 | 0.00 | 0.00 | 0.00 | 41 | 1016.9 |
| 20260505160518 | 73 | 269 | 3.0 | 9.0 | 0.00 | 0.00 | 0.00 | 43 | 1016.9 |
| 20260505153016 | 72 | 247 | 1.0 | 6.0 | 0.00 | 0.00 | 0.00 | 49 | 1017.2 |
| 20260505152516 | 72 | 269 | 1.0 | 5.0 | 0.00 | 0.00 | 0.00 | 51 | 1017.2 |
| 20260505152013 | 71 | 213 | 1.0 | 5.0 | 0.00 | 0.00 | 0.00 | 50 | 1017.4 |
| 20260505151513 | 71 | 132 | 0.0 | 3.0 | 0.00 | 0.00 | 0.00 | 52 | 1017.3 |
| 20260505151012 | 71 | 75 | 1.0 | 6.0 | 0.00 | 0.00 | 0.00 | 52 | 1017.3 |
| 20260505150513 | 70 | 201 | 1.0 | 6.0 | 0.00 | 0.00 | 0.00 | 53 | 1017.3 |
| 20260505140500 | 65 | 114 | 2.0 | 6.0 | 0.00 | 0.00 | 0.00 | 60 | 1017.3 |
| 20260505140108 | 65 | 65 | 0.0 | 4.0 | 0.00 | 0.00 | 0.00 | 63 | 1017.3 |
| 20260505124549 | 58 | 93 | 0.0 | 2.0 | 0.00 | 0.00 | 0.00 | 73 | 1017.1 |
| 20260505124042 | 57 | 87 | 0.0 | 2.0 | 0.00 | 0.00 | 0.00 | 76 | 1017.1 |
| 20260505123542 | 56 | 133 | 0.0 | 0.0 | 0.00 | 0.00 | 0.00 | 77 | 1017.1 |
| 20260505123042 | 55 | 133 | 0.0 | 0.0 | 0.00 | 0.00 | 0.00 | 80 | 1017.1 |
| 20260505122539 | 54 | 171 | 0.0 | 0.0 | 0.00 | 0.00 | 0.00 | 81 | 1017.0 |
| 20260505122038 | 54 | 171 | 0.0 | 0.0 | 0.00 | 0.00 | 0.00 | 82 | 1017.0 |
| 20260505121538 | 53 | 171 | 0.0 | 0.0 | 0.00 | 0.00 | 0.00 | 83 | 1017.0 |
| 20260505121038 | 52 | 171 | 0.0 | 0.0 | 0.00 | 0.00 | 0.00 | 84 | 1016.9 |
| 20260505120538 | 52 | 171 | 0.0 | 0.0 | 0.00 | 0.00 | 0.00 | 84 | 1016.9 |
| 20260505120048 | 51 | 171 | 0.0 | 0.0 | 0.00 | 0.00 | 0.00 | 87 | 1016.9 |
| 20260505115536 | 49 | 171 | 0.0 | 0.0 | 0.00 | 0.00 | 0.00 | 87 | 1016.8 |
| 20260505115039 | 48 | 115 | 0.0 | 0.0 | 0.00 | 0.00 | 0.00 | 89 | 1016.9 |
| 20260505114536 | 47 | 115 | 0.0 | 0.0 | 0.00 | 0.00 | 0.00 | 91 | 1016.9 |
| 20260505114035 | 46 | 115 | 0.0 | 0.0 | 0.00 | 0.00 | 0.00 | 91 | 1016.9 |
| 20260505113535 | 45 | 115 | 0.0 | 0.0 | 0.00 | 0.00 | 0.00 | 91 | 1016.9 |
| 20260505113035 | 45 | 115 | 0.0 | 0.0 | 0.00 | 0.00 | 0.00 | 91 | 1016.9 |
| 20260505112535 | 45 | 115 | 0.0 | 0.0 | 0.00 | 0.00 | 0.00 | 92 | 1016.8 |
| 20260505112036 | 44 | 115 | 0.0 | 0.0 | 0.00 | 0.00 | 0.00 | 91 | 1016.8 |
| 20260505111535 | 44 | 115 | 0.0 | 0.0 | 0.00 | 0.00 | 0.00 | 91 | 1016.8 |
| 20260505111039 | 44 | 115 | 0.0 | 0.0 | 0.00 | 0.00 | 0.00 | 91 | 1016.7 |
| 20260505110533 | 44 | 115 | 0.0 | 0.0 | 0.00 | 0.00 | 0.00 | 91 | 1016.8 |
| 20260505102031 | 45 | 115 | 0.0 | 0.0 | 0.00 | 0.00 | 0.00 | 90 | 1016.7 |
| 20260505101530 | 45 | 115 | 0.0 | 0.0 | 0.00 | 0.00 | 0.00 | 89 | 1016.7 |
| 20260505101029 | 45 | 115 | 0.0 | 0.0 | 0.00 | 0.00 | 0.00 | 89 | 1016.6 |
| 20260505100529 | 45 | 115 | 0.0 | 0.0 | 0.00 | 0.00 | 0.00 | 89 | 1016.6 |
| 20260505100027 | 45 | 115 | 0.0 | 0.0 | 0.00 | 0.00 | 0.00 | 88 | 1016.6 |
| 20260505095526 | 45 | 115 | 0.0 | 0.0 | 0.00 | 0.00 | 0.00 | 89 | 1016.6 |
| 20260505095029 | 45 | 115 | 0.0 | 0.0 | 0.00 | 0.00 | 0.00 | 88 | 1016.6 |
| 20260505094530 | 45 | 115 | 0.0 | 0.0 | 0.00 | 0.00 | 0.00 | 88 | 1016.6 |
| 20260505094025 | 45 | 115 | 0.0 | 0.0 | 0.00 | 0.00 | 0.00 | 88 | 1016.6 |
| 20260505093526 | 46 | 115 | 0.0 | 0.0 | 0.00 | 0.00 | 0.00 | 88 | 1016.6 |
| 20260505093025 | 45 | 115 | 0.0 | 0.0 | 0.00 | 0.00 | 0.00 | 88 | 1016.5 |
| 20260505092525 | 45 | 115 | 0.0 | 0.0 | 0.00 | 0.00 | 0.00 | 88 | 1016.5 |
| 20260505092024 | 45 | 115 | 0.0 | 0.0 | 0.00 | 0.00 | 0.00 | 88 | 1016.4 |
| 20260505091523 | 46 | 115 | 0.0 | 0.0 | 0.00 | 0.00 | 0.00 | 88 | 1016.5 |
| 20260505091023 | 46 | 115 | 0.0 | 0.0 | 0.00 | 0.00 | 0.00 | 87 | 1016.5 |
| 20260505090521 | 46 | 115 | 0.0 | 0.0 | 0.00 | 0.00 | 0.00 | 87 | 1016.4 |
| 20260505090020 | 46 | 115 | 0.0 | 0.0 | 0.00 | 0.00 | 0.00 | 87 | 1016.4 |
| 20260505085522 | 47 | 115 | 0.0 | 0.0 | 0.00 | 0.00 | 0.00 | 86 | 1016.3 |
| 20260505085020 | 47 | 115 | 0.0 | 0.0 | 0.00 | 0.00 | 0.00 | 86 | 1016.3 |